Location: *
(49.4547°N, 7.9131°E)
Time: 03:32:21
(UTC+00:00)

Cosmos 2082 Rocket - Pass Details

Date: 22 September 2019
Orbit: 831 x 855 km, 71.0° (Epoch: 16 October)

Event Time Altitude Azimuth Distance (km) Brightness Sun altitude
Rises 23:13:28 0° 332° (NNW) 3,437 6.1 -40.4°
Reaches altitude 10° 23:16:00 10° 337° (NNW) 2,498 5.2 -40.4°
Enters shadow 23:18:09 23° 345° (NNW) 1,746 4.3 -40.4°
